Ranneslatt Airport


Codes: ESMC/
Name: Ranneslatt Airport
City: Eksjo
Country: Sweden
Elevation: 720 ft.
Website:

Photos at Ranneslatt Airport


   Photos courtesy of SpottingLog. You can add your own sightings and photos by signing up for a free trial today.



No photos found.

Weather at Ranneslatt Airport


Time (UTC)DescriptionTempratureWindCloud coverageVisibilityPressureHumidity
21-Feb-2024 03:00Overcast Clouds4°C9 mph, SW100%5447m1009hPa95%
21-Feb-2024 06:00Light Rain4°C9 mph, SW100%10000m1006hPa96%
21-Feb-2024 09:00Light Rain5°C9 mph, SW100%6227m1003hPa96%
21-Feb-2024 12:00Light Rain4°C7 mph, W100%10000m1004hPa95%
21-Feb-2024 15:00Overcast Clouds5°C7 mph, W100%10000m1004hPa88%
21-Feb-2024 18:00Overcast Clouds3°C4 mph, SW95%10000m1004hPa89%
21-Feb-2024 21:00Overcast Clouds2°C7 mph, SW100%10000m1004hPa96%
22-Feb-2024 00:00Overcast Clouds2°C7 mph, S100%10000m1002hPa94%
22-Feb-2024 03:00Overcast Clouds3°C9 mph, S100%6874m998hPa97%
22-Feb-2024 06:00Overcast Clouds4°C9 mph, S100%509m996hPa97%
22-Feb-2024 09:00Light Rain5°C9 mph, S100%10000m995hPa96%
22-Feb-2024 12:00Overcast Clouds5°C9 mph, S100%416m994hPa97%
22-Feb-2024 15:00Overcast Clouds4°C9 mph, SE100%162m991hPa97%
22-Feb-2024 18:00Overcast Clouds4°C9 mph, SE100%108m989hPa97%
22-Feb-2024 21:00Light Rain4°C11 mph, SE100%94m986hPa97%
23-Feb-2024 00:00Overcast Clouds5°C11 mph, SE100%72m982hPa97%
23-Feb-2024 03:00Light Rain6°C13 mph, S100%10000m978hPa94%
23-Feb-2024 06:00Light Snow3°C18 mph, SW100%10000m982hPa76%
23-Feb-2024 09:00Broken Clouds3°C18 mph, SW66%10000m987hPa73%
23-Feb-2024 12:00Broken Clouds4°C18 mph, SW51%10000m991hPa71%
23-Feb-2024 15:00Light Rain3°C13 mph, SW88%10000m994hPa82%
23-Feb-2024 18:00Broken Clouds2°C9 mph, SW57%10000m997hPa86%
23-Feb-2024 21:00Few Clouds2°C11 mph, S15%10000m1000hPa89%
24-Feb-2024 00:00Scattered Clouds1°C9 mph, S28%10000m1001hPa92%
24-Feb-2024 03:00Broken Clouds1°C7 mph, SE81%10000m1002hPa94%
24-Feb-2024 06:00Overcast Clouds0°C4 mph, SE90%10000m1002hPa95%
24-Feb-2024 09:00Overcast Clouds3°C4 mph, SE100%10000m1002hPa83%
24-Feb-2024 12:00Overcast Clouds4°C4 mph, SE100%10000m1001hPa82%
24-Feb-2024 15:00Light Rain4°C2 mph, SE100%10000m1001hPa84%
24-Feb-2024 18:00Overcast Clouds3°C4 mph, S100%10000m1003hPa86%
24-Feb-2024 21:00Overcast Clouds2°C7 mph, S100%10000m1005hPa92%
25-Feb-2024 00:00Light Snow2°C9 mph, S99%10000m1006hPa92%
25-Feb-2024 03:00Overcast Clouds2°C9 mph, S100%10000m1007hPa93%
25-Feb-2024 06:00Light Snow2°C9 mph, S100%10000m1009hPa89%
25-Feb-2024 09:00Overcast Clouds3°C4 mph, S95%10000m1010hPa80%
25-Feb-2024 12:00Broken Clouds6°C7 mph, S82%10000m1011hPa62%
25-Feb-2024 15:00Scattered Clouds5°C4 mph, SE28%10000m1012hPa68%
25-Feb-2024 18:00Scattered Clouds2°C7 mph, SE36%10000m1012hPa89%
25-Feb-2024 21:00Broken Clouds2°C7 mph, SE74%10000m1013hPa90%
26-Feb-2024 00:00Overcast Clouds1°C7 mph, E87%10000m1013hPa86%